This demonstration page uses our WeatherBlox Daily Observations layout. Learn more.

Left ArrowRight Arrow

Hourly Observations for June 13, 2016

Temp ( °F °C ) Dew Point ( °F °C ) Humidity (%) Winds ( mph kmh ) Pressure ( in mb ) Visibility ( mi km ) Precip ( " mm )
12:54 am 00:54 Clear 77 25 69 20.6 77 77 S 7 11 29.94 1014 10 16.0934 0 0
1:54 am 01:54 Clear 77 25 69 20.6 77 77 S 10 17 29.94 1014 10 16.0934 0 0
2:54 am 02:54 Clear 77 25 68 20 74 74 SSW 8 13 29.93 1014 10 16.0934 0 0
3:54 am 03:54 Clear 73 22.8 68 20 84 84 S 5 7 29.93 1014 10 16.0934 0 0
4:54 am 04:54 Clear 72 22.2 68 20 87 87 S 7 11 29.93 1014 10 16.0934 0 0
5:54 am 05:54 Mostly Clear 72 22.2 68 20 87 87 S 5 7 29.95 1014 10 16.0934 0 0
6:54 am 06:54 Sunny 73 22.8 69 20.6 87 87 S 7 11 29.94 1014 10 16.0934 0 0
7:54 am 07:54 Sunny 77 25 70 21.1 79 79 SW 7 11 29.93 1014 10 16.0934 0 0
8:54 am 08:54 Sunny 80 26.7 70 21.1 71 71 W 3 6 29.92 1013 10 16.0934 0 0
9:54 am 09:54 Sunny 82 27.8 70 21.1 67 67 NNW 6 9 29.92 1013 10 16.0934 0 0
10:54 am 10:54 Sunny 86 30 71 21.7 61 61 Calm 29.92 1013 10 16.0934 0 0
11:54 am 11:54 Mostly Cloudy 86 30 70 21.1 59 59 VRB 6 9 29.91 1013 10 16.0934 0 0
12:54 pm 12:54 Mostly Sunny 90 32.2 70 21.1 52 52 VRB 5 7 29.89 1012 10 16.0934 0 0
1:54 pm 13:54 Mostly Sunny 91 32.8 69 20.6 49 49 N 3 6 29.85 1011 10 16.0934 0 0
2:54 pm 14:54 Sunny 89 31.7 68 20 50 50 WSW 3 6 29.83 1010 10 16.0934 0 0
3:54 pm 15:54 Mostly Sunny 89 31.7 68 20 50 50 S 3 6 29.82 1010 10 16.0934 0 0
4:54 pm 16:54 Sunny 88 31.1 69 20.6 54 54 S 7 11 29.8 1009 10 16.0934 0 0
5:54 pm 17:54 Sunny 89 31.7 66 18.9 47 47 SSW 7 11 29.78 1008 10 16.0934 0 0
6:54 pm 18:54 Mostly Cloudy 80 26.7 69 20.6 69 69 N 23 37 29.79 1009 10 16.0934 0 0
7:01 pm 19:01 Partly Cloudy with Nearby Thunderstorms 79 26.1 69 20.6 72 72 N 22 35 29.77 1008 10 16.0934 0 0
7:16 pm 19:16 Mostly Sunny 81 27 66 19 62 62 N 17 28 29.77 1008 10 16.0934 0 0
7:54 pm 19:54 Cloudy 81 27.2 67 19.4 62 62 SE 5 7 29.79 1009 10 16.0934 0 0
8:54 pm 20:54 Sunny 79 26.1 68 20 69 69 NE 6 9 29.78 1008 10 16.0934 0 0.0254
9:54 pm 21:54 Mostly Clear 78 25.6 68 20 71 71 ENE 8 13 29.78 1009 10 16.0934 0 0
10:54 pm 22:54 Mostly Clear 76 24.4 68 20 77 77 E 3 6 29.8 1009 10 16.0934 0 0
11:54 pm 23:54 Clear 74 23.3 68 20 82 82 Calm 29.79 1009 10 16.0934 0 0

Powered by AerisWeather